SL-14 DEB, 45331

Orbit data source: Space-Track

SL-14 DEB, 45331 is space debris in LEO originally from a launch on Thu, 15 Aug 1991 UTC launched from the Plesetsk Missile And Space Complex (PKMTR). Debris objects in space refer to the collection of defunct objects orbiting the Earth. Examples of debris include non-operational satellites, rocket bodies, and fragments generated from explosions, collisions, or faulty payload assembly.

Loading next visibility...
Identifier
45331, 1991-056BV
Orbit
LEO
Country
Flag of CISCIS
Related business
Manufacturer
Unknown
Mission
Spacecraft
Bus & Motor
Unknown
Mass
Unknown
Launch date (UTC)
1991-08-15 (35 years ago)
Launch vehicle
Unknown
Launch site
Plesetsk Missile And Space Complex (PKMTR)
Object type
Payload
Rocket body
Debris
Shape & HBR
Unknown shape, 0.1 m
Radar Cross Section
Small (<0.1 m²)

Expand to show TLE details & history
Last TLE update: 17 hours ago

TLE from 17 hours ago
0 SL-14 DEB
1 45331U 91056BV  26127.82784030  .00002185  00000-0  72388-2 0  9993
2 45331  82.6679 282.7982 0234260 297.5233  60.2244 12.91282204290192
Epoch: 2026-05-07T19:52Z
TLE epoch observation values (Epoch: 2026-05-07T19:52:05.401Z)
Latitude
-0.00007°
Longitude
119.1073°
Altitude
1,213.147 km
Speed
7.288 km/s
True Right ascension
18h 51m 11s
True Declination
0° 00' 00"
Sunlit
Object was in daylight at epoch
Visualization orbit readout
Latitude
Unknown
Longitude
Unknown
Altitude
Unknown
Speed
Unknown
Apparent Right ascension
Unknown
Apparent Declination
Unknown
Sunlit
N/A
Visualization observer readout
Local Sidereal Time
21:11:21
Azimuth
Unknown
Elevation
Unknown
Doppler factor
Unknown
Orbital elements
Apogee altitude
1,473.434 km
Perigee altitude
1,113.992 km
Semi-major axis
7,671.85 km
Eccentricity
0.02343
Inclination
82.6679°
RAAN
282.7982°
Arg. of periapsis
297.5233°
True anomaly
62.58811°
Mean anomaly
60.2244°
Eccentric anomaly
61.40287°
Mean motion
3.22993 °/min
Orbital period
111.46 mins
BSTAR
0.0072388
Loading maneuver chart data...
Computing Atmospheric mass density...
Loading historical data...
Loading historical data...
Loading historical data...
Loading historical data...
Loading historical data...
Loading historical data...
Loading historical data...

Documentation

Showing up to 5 results
|